| time (UTC) | temp F | wind direction | speed MPH | gust MPH | rain 1hr in | rain 24hr in | rain mn in | humidity % | barometer mb |
| 20260508053100 | 64 | 271 | 5.0 | 10.0 | 0.00 | 0.00 | 0.00 | 13 | 1010.9 |
| 20260508051559 | 64 | 285 | 7.0 | 14.0 | 0.00 | 0.00 | 0.00 | 13 | 1010.9 |
| 20260508050059 | 65 | 252 | 4.0 | 11.0 | 0.00 | 0.00 | 0.00 | 12 | 1010.6 |
| 20260508044558 | 63 | 228 | 4.0 | 7.0 | 0.00 | 0.00 | 0.00 | 13 | 1010.8 |
| 20260508043101 | 64 | 236 | 4.0 | 9.0 | 0.00 | 0.00 | 0.00 | 12 | 1010.9 |
| 20260508041556 | 64 | 241 | 4.0 | 6.0 | 0.00 | 0.00 | 0.00 | 12 | 1010.8 |
| 20260508040056 | 64 | 226 | 2.0 | 7.0 | 0.00 | 0.00 | 0.00 | 12 | 1010.8 |
| 20260508034556 | 64 | 230 | 3.0 | 5.0 | 0.00 | 0.00 | 0.00 | 12 | 1010.7 |
| 20260508033055 | 65 | 271 | 3.0 | 7.0 | 0.00 | 0.00 | 0.00 | 11 | 1010.5 |
| 20260508031559 | 66 | 245 | 0.0 | 5.0 | 0.00 | 0.00 | 0.00 | 11 | 1010.3 |
| 20260508024604 | 67 | 210 | 5.0 | 12.0 | 0.00 | 0.00 | 0.00 | 13 | 1009.9 |
| 20260508023152 | 68 | 238 | 2.0 | 10.0 | 0.00 | 0.00 | 0.00 | 11 | 1009.8 |
| 20260508021552 | 69 | 269 | 7.0 | 11.0 | 0.00 | 0.00 | 0.00 | 12 | 1009.7 |
| 20260508014552 | 71 | 310 | 5.0 | 13.0 | 0.00 | 0.00 | 0.00 | 12 | 1009.5 |
| 20260508013050 | 73 | 302 | 5.0 | 14.0 | 0.00 | 0.00 | 0.00 | 10 | 1009.2 |
| 20260508011551 | 74 | 287 | 5.0 | 13.0 | 0.00 | 0.00 | 0.00 | 9 | 1009.1 |
| 20260508010051 | 74 | 250 | 7.0 | 13.0 | 0.00 | 0.00 | 0.00 | 9 | 1009.0 |
| 20260508004548 | 74 | 266 | 6.0 | 16.0 | 0.00 | 0.00 | 0.00 | 9 | 1008.9 |
| 20260508003049 | 74 | 186 | 7.0 | 16.0 | 0.00 | 0.00 | 0.00 | 8 | 1009.0 |
| 20260508001546 | 74 | 217 | 13.0 | 18.0 | 0.00 | 0.00 | 0.00 | 8 | 1009.1 |
| 20260508000044 | 75 | 240 | 6.0 | 16.0 | 0.00 | 0.00 | 0.00 | 8 | 1009.3 |
| 20260507234545 | 75 | 233 | 8.0 | 18.0 | 0.00 | 0.00 | 0.00 | 9 | 1009.3 |
| 20260507233041 | 74 | 221 | 7.0 | 15.0 | 0.00 | 0.00 | 0.00 | 8 | 1009.6 |
| 20260507231544 | 74 | 224 | 10.0 | 18.0 | 0.00 | 0.00 | 0.00 | 9 | 1009.7 |
| 20260507230042 | 75 | 293 | 8.0 | 16.0 | 0.00 | 0.00 | 0.00 | 9 | 1010.0 |
| 20260507224535 | 74 | 181 | 5.0 | 15.0 | 0.00 | 0.00 | 0.00 | 9 | 1010.1 |
| 20260507223033 | 73 | 242 | 5.0 | 16.0 | 0.00 | 0.00 | 0.00 | 10 | 1010.3 |
| 20260507221529 | 73 | 271 | 8.0 | 19.0 | 0.00 | 0.00 | 0.00 | 10 | 1010.5 |
| 20260507220028 | 73 | 279 | 10.0 | 17.0 | 0.00 | 0.00 | 0.00 | 11 | 1010.8 |
| 20260507214525 | 73 | 255 | 8.0 | 13.0 | 0.00 | 0.00 | 0.00 | 11 | 1011.1 |
| 20260507213024 | 72 | 205 | 6.0 | 14.0 | 0.00 | 0.00 | 0.00 | 12 | 1011.5 |
| 20260507211533 | 71 | 203 | 8.0 | 18.0 | 0.00 | 0.00 | 0.00 | 12 | 1011.9 |
| 20260507210017 | 71 | 267 | 3.0 | 15.0 | 0.00 | 0.00 | 0.00 | 13 | 1012.2 |
| 20260507204516 | 70 | 323 | 6.0 | 15.0 | 0.00 | 0.00 | 0.00 | 12 | 1012.6 |
| 20260507203012 | 70 | 260 | 4.0 | 11.0 | 0.00 | 0.00 | 0.00 | 16 | 1012.9 |
| 20260507201511 | 69 | 244 | 5.0 | 14.0 | 0.00 | 0.00 | 0.00 | 16 | 1013.2 |
| 20260507200004 | 67 | 282 | 11.0 | 18.0 | 0.00 | 0.00 | 0.00 | 17 | 1013.4 |
| 20260507194501 | 67 | 316 | 2.0 | 15.0 | 0.00 | 0.00 | 0.00 | 18 | 1013.8 |
| 20260507193059 | 66 | 207 | 8.0 | 13.0 | 0.00 | 0.00 | 0.00 | 19 | 1014.2 |
| 20260507191559 | 66 | 285 | 6.0 | 11.0 | 0.00 | 0.00 | 0.00 | 18 | 1014.4 |
| 20260507190055 | 66 | 218 | 2.0 | 9.0 | 0.00 | 0.00 | 0.00 | 19 | 1014.9 |
| 20260507184551 | 65 | 267 | 3.0 | 9.0 | 0.00 | 0.00 | 0.00 | 19 | 1015.2 |
| 20260507183050 | 62 | 257 | 4.0 | 9.0 | 0.00 | 0.00 | 0.00 | 24 | 1015.4 |
| 20260507181544 | 60 | 316 | 6.0 | 12.0 | 0.00 | 0.00 | 0.00 | 26 | 1015.6 |
| 20260507180052 | 60 | 340 | 6.0 | 15.0 | 0.00 | 0.00 | 0.00 | 28 | 1016.0 |
| 20260507174541 | 59 | 257 | 5.0 | 10.0 | 0.00 | 0.00 | 0.00 | 25 | 1016.2 |
| 20260507173045 | 59 | 22 | 5.0 | 9.0 | 0.00 | 0.00 | 0.00 | 28 | 1016.5 |
| 20260507171544 | 59 | 51 | 4.0 | 8.0 | 0.00 | 0.00 | 0.00 | 27 | 1016.7 |
| 20260507170034 | 57 | 46 | 4.0 | 9.0 | 0.00 | 0.00 | 0.00 | 32 | 1016.9 |
| 20260507164531 | 56 | 37 | 4.0 | 9.0 | 0.00 | 0.00 | 0.00 | 35 | 1017.0 |
| 20260507163032 | 55 | 4 | 7.0 | 11.0 | 0.00 | 0.00 | 0.00 | 40 | 1017.2 |
| 20260507161536 | 54 | 15 | 7.0 | 12.0 | 0.00 | 0.00 | 0.00 | 45 | 1017.5 |
| 20260507160040 | 53 | 64 | 6.0 | 12.0 | 0.00 | 0.00 | 0.00 | 46 | 1017.5 |
| 20260507154523 | 52 | 50 | 8.0 | 12.0 | 0.00 | 0.00 | 0.00 | 48 | 1017.6 |
| 20260507153020 | 51 | 53 | 7.0 | 10.0 | 0.00 | 0.00 | 0.00 | 51 | 1017.7 |
| 20260507151519 | 50 | 43 | 6.0 | 9.0 | 0.00 | 0.00 | 0.00 | 56 | 1017.9 |
| 20260507150023 | 48 | 47 | 6.0 | 9.0 | 0.00 | 0.00 | 0.00 | 61 | 1018.1 |
| 20260507144527 | 46 | 37 | 5.0 | 11.0 | 0.00 | 0.00 | 0.00 | 66 | 1018.1 |
| 20260507143017 | 44 | 20 | 6.0 | 11.0 | 0.00 | 0.00 | 0.00 | 70 | 1018.4 |
| 20260507141520 | 42 | 43 | 8.0 | 11.0 | 0.00 | 0.00 | 0.00 | 72 | 1018.3 |
| 20260507140015 | 41 | 44 | 9.0 | 13.0 | 0.00 | 0.00 | 0.00 | 74 | 1018.4 |
| 20260507134514 | 41 | 44 | 9.0 | 12.0 | 0.00 | 0.00 | 0.00 | 74 | 1018.4 |
| 20260507133014 | 40 | 53 | 7.0 | 10.0 | 0.00 | 0.00 | 0.00 | 74 | 1018.3 |
| 20260507131512 | 40 | 79 | 4.0 | 10.0 | 0.00 | 0.00 | 0.00 | 76 | 1018.2 |
| 20260507130022 | 39 | 41 | 5.0 | 8.0 | 0.00 | 0.00 | 0.00 | 78 | 1018.1 |
| 20260507124508 | 38 | 63 | 4.0 | 7.0 | 0.00 | 0.00 | 0.00 | 80 | 1018.0 |
| 20260507123006 | 37 | 53 | 4.0 | 8.0 | 0.00 | 0.00 | 0.00 | 81 | 1017.9 |
| 20260507121506 | 37 | 51 | 4.0 | 8.0 | 0.00 | 0.00 | 0.00 | 81 | 1017.6 |
| 20260507120004 | 38 | 68 | 6.0 | 9.0 | 0.00 | 0.00 | 0.00 | 80 | 1017.6 |
| 20260507114501 | 38 | 63 | 6.0 | 9.0 | 0.00 | 0.00 | 0.00 | 79 | 1017.6 |
| 20260507113101 | 38 | 64 | 6.0 | 8.0 | 0.00 | 0.00 | 0.00 | 79 | 1017.5 |
| 20260507111558 | 38 | 66 | 4.0 | 9.0 | 0.00 | 0.00 | 0.00 | 76 | 1017.5 |
| 20260507110057 | 38 | 63 | 5.0 | 9.0 | 0.00 | 0.00 | 0.00 | 71 | 1017.5 |
| 20260507104558 | 38 | 95 | 0.0 | 4.0 | 0.00 | 0.00 | 0.00 | 72 | 1017.5 |
| 20260507103054 | 39 | 92 | 5.0 | 9.0 | 0.00 | 0.00 | 0.00 | 72 | 1017.4 |
| 20260507101556 | 38 | 54 | 6.0 | 8.0 | 0.00 | 0.00 | 0.00 | 68 | 1017.3 |
| 20260507100048 | 38 | 76 | 0.0 | 5.0 | 0.00 | 0.00 | 0.00 | 65 | 1017.1 |
| 20260507094545 | 39 | 60 | 1.0 | 5.0 | 0.00 | 0.00 | 0.00 | 65 | 1016.9 |
| 20260507093043 | 39 | 81 | 0.0 | 0.0 | 0.00 | 0.00 | 0.00 | 69 | 1016.9 |
| 20260507091543 | 40 | 72 | 0.0 | 0.0 | 0.00 | 0.00 | 0.00 | 68 | 1016.9 |
| 20260507090037 | 40 | 79 | 0.0 | 0.0 | 0.00 | 0.00 | 0.00 | 67 | 1016.8 |
| 20260507084535 | 41 | 88 | 4.0 | 9.0 | 0.00 | 0.00 | 0.00 | 66 | 1016.9 |
| 20260507083030 | 43 | 77 | 4.0 | 12.0 | 0.00 | 0.00 | 0.00 | 61 | 1016.9 |
| 20260507081524 | 45 | 78 | 6.0 | 9.0 | 0.00 | 0.00 | 0.00 | 50 | 1016.7 |
| 20260507080023 | 46 | 72 | 4.0 | 7.0 | 0.00 | 0.00 | 0.00 | 48 | 1016.6 |
| 20260507074518 | 46 | 131 | 4.0 | 6.0 | 0.00 | 0.00 | 0.00 | 40 | 1016.6 |
| 20260507073014 | 49 | 129 | 0.0 | 0.0 | 0.00 | 0.00 | 0.00 | 31 | 1016.5 |
| 20260507071515 | 49 | 70 | 0.0 | 6.0 | 0.00 | 0.00 | 0.00 | 30 | 1016.4 |
| 20260507070013 | 49 | 138 | 0.0 | 4.0 | 0.00 | 0.00 | 0.00 | 31 | 1016.3 |
| 20260507064509 | 49 | 56 | 0.0 | 0.0 | 0.00 | 0.00 | 0.00 | 32 | 1016.1 |
| 20260507063023 | 49 | 174 | 0.0 | 0.0 | 0.00 | 0.00 | 0.00 | 32 | 1016.1 |
| 20260507061506 | 49 | 188 | 2.0 | 4.0 | 0.00 | 0.00 | 0.00 | 32 | 1015.9 |
| 20260507060001 | 51 | 309 | 0.0 | 0.0 | 0.00 | 0.00 | 0.00 | 30 | 1015.7 |
| 20260507054558 | 52 | 322 | 0.0 | 0.0 | 0.00 | 0.00 | 0.00 | 30 | 1015.6 |